Wind_Speed
4 6 5 3 4 6 2 2 1 3 5 4 3 3 5 5 4 6 6 5 1 3 5 5 5 7 7 8 8 8 6 7 8 7 8 7 7 7 5 5 4 4 5 5 7 10 7 2 1 3 4 6 8 10 13 14 14 15 17 19 20 21 22 23 24 21 18 22 23 21 20 21 22 22 19 16 16 15 15 15 15 15 14 11 11 12
5 7 2 2 5 4 1 2 4 4 1 1 2 2 4 3 6 7 5 5 2 3 5 4 4 8 8 8 7 7 8 9 10 9 9 9 8 6 5 5 5 4 5 6 7 8 3 2 2 4 5 7 8 9 12 13 13 15 18 19 19 20 21 22 21 17 17 20 20 18 19 20 21 20 16 16 17 16 16 15 15 15 15 14 15 14
6 4 3 5 2 2 4 5 7 6 3 3 2 1 3 3 5 7 4 3 2 1 5 3 4 8 8 7 6 7 9 8 8 10 9 9 8 7 6 5 5 4 5 5 6 6 2 4 3 3 5 6 6 8 10 12 14 16 18 18 18 19 21 21 19 16 18 18 16 17 19 19 20 18 14 13 14 16 16 16 16 16 17 17 17 17
3 0 3 1 4 6 4 6 7 5 3 2 1 1 4 3 2 5 4 5 5 3 3 3 4 7 4 4 6 7 8 5 5 9 8 7 8 7 7 5 5 4 5 5 5 5 5 5 4 4 4 4 6 8 10 12 14 15 16 16 16 18 20 21 19 17 18 16 15 17 18 18 18 16 13 12 13 15 16 17 17 17 18 19 19 18
2 3 0 5 7 6 3 4 6 4 4 3 3 2 4 5 3 6 5 7 8 3 0 0 3 5 2 4 8 6 5 5 5 7 8 7 6 6 6 5 5 5 5 4 5 6 7 6 6 4 3 4 6 8 9 11 13 14 14 15 16 17 20 20 18 19 18 15 16 18 17 17 17 15 13 13 15 17 18 18 19 20 20 20 20 19
1 3 1 5 6 7 4 2 2 2 4 4 4 5 6 6 6 7 5 6 5 3 1 3 4 6 1 4 9 4 5 8 5 6 10 8 6 6 5 6 6 5 6 5 6 8 8 7 7 6 5 6 7 8 9 11 12 13 14 14 16 18 20 19 17 18 17 15 16 16 16 16 15 14 14 15 17 18 18 19 21 23 22 21 20 20
1 3 4 5 5 6 4 2 2 3 3 4 4 5 5 5 6 7 5 2 1 3 3 3 2 5 4 3 8 4 7 10 7 8 11 8 7 7 6 6 6 5 5 5 7 9 8 8 9 8 8 7 7 8 9 10 12 13 14 14 15 18 19 17 17 17 16 16 16 14 14 15 14 14 14 15 17 18 18 19 21 23 22 19 18 17
1 4 6 6 5 4 3 2 3 5 4 4 5 2 6 7 7 7 3 2 2 3 4 2 3 3 5 4 4 1 5 9 9 11 12 9 8 8 7 6 6 6 5 4 6 8 9 10 11 10 9 9 8 9 9 10 12 13 14 14 15 16 16 15 15 15 15 16 15 13 14 14 13 14 15 15 16 16 17 18 19 19 18 17 16 16
1 1 0 3 4 2 0 3 5 5 3 6 7 7 8 7 7 5 3 3 2 3 4 3 2 1 6 4 3 2 3 8 11 14 13 12 11 9 8 7 7 6 6 6 6 8 10 11 12 11 10 9 9 10 9 9 11 12 13 14 14 15 14 14 13 14 15 15 13 13 13 14 14 15 15 16 16 16 16 17 16 16 17 18 18 17
0 2 4 5 3 1 4 5 5 6 4 7 7 8 5 2 2 1 4 2 2 3 4 4 1 0 5 5 1 1 3 7 10 11 11 11 10 9 8 7 7 6 5 6 9 12 12 11 12 12 10 10 11 10 9 9 10 12 13 14 14 14 13 13 13 13 14 15 13 13 13 14 15 16 17 17 16 16 16 15 16 17 18 19 19 18
2 2 2 3 2 3 3 5 4 6 5 5 6 6 5 3 3 3 2 3 4 3 6 4 2 2 3 5 3 3 5 7 7 6 6 7 8 9 8 7 7 6 5 6 8 13 13 11 12 13 11 11 11 9 8 9 10 11 13 13 14 13 12 13 13 14 15 15 14 13 14 15 15 16 16 16 16 16 16 15 16 18 18 19 19 19
4 2 1 2 2 1 2 3 2 1 1 5 4 4 4 4 3 3 4 4 3 4 5 3 1 2 2 6 5 5 7 6 6 6 6 7 9 9 8 7 7 6 6 5 6 10 12 11 13 14 12 12 11 9 9 10 11 11 12 12 14 14 13 13 14 14 15 14 14 14 15 15 15 15 16 17 17 17 16 17 18 19 19 20 20 21
2 2 2 3 2 1 2 3 4 4 4 5 4 4 5 4 4 4 4 2 1 4 3 4 0 1 5 8 8 9 10 9 8 8 7 8 9 8 8 7 7 6 6 6 6 7 10 11 14 15 13 12 11 10 9 10 10 11 11 12 13 14 14 14 13 13 14 14 14 15 15 15 14 15 16 18 18 17 17 18 18 19 19 21 22 22
3 4 3 2 2 1 3 2 2 3 4 4 3 3 3 3 5 4 4 3 3 4 3 4 0 3 5 7 8 10 9 8 8 8 7 7 8 8 8 7 6 6 6 7 6 7 9 12 14 14 13 12 11 10 10 10 10 11 12 12 13 13 14 14 13 12 13 14 14 15 15 14 14 15 16 17 16 16 17 18 18 20 21 21 22 22
2 4 3 1 1 1 3 2 3 1 1 2 1 3 3 2 1 2 3 3 5 6 4 2 1 3 4 4 6 6 6 4 5 6 5 6 7 7 6 6 6 7 7 7 7 8 11 14 14 14 13 12 10 10 11 11 11 12 12 12 12 13 13 13 13 12 13 14 15 15 14 14 14 14 15 15 15 16 18 19 20 21 21 21 21 21
1 4 5 1 1 2 2 1 3 4 2 1 1 4 2 2 3 2 3 4 2 5 5 2 2 5 4 5 3 2 5 4 4 5 5 7 8 6 6 7 7 7 7 7 7 8 12 15 15 14 14 12 11 11 11 12 12 12 12 12 12 13 13 13 13 13 14 15 15 14 13 13 14 14 15 16 16 17 19 20 20 21 21 21 21 22
1 4 3 2 2 2 1 2 1 2 0 1 2 1 2 3 5 2 3 2 3 2 4 2 4 5 4 5 3 4 5 6 5 7 8 9 8 7 8 8 7 8 8 8 7 8 12 15 16 17 15 13 12 12 12 12 12 12 13 12 12 12 12 13 13 15 16 16 15 13 12 13 14 15 16 17 17 18 19 19 19 21 21 21 21 23
1 4 4 1 0 1 1 2 3 3 1 3 1 2 2 2 4 3 1 4 4 1 4 3 5 7 4 4 5 4 6 9 8 9 10 10 9 9 11 10 9 9 8 8 8 10 14 16 18 18 16 14 13 12 13 13 12 13 13 13 13 12 12 12 14 15 16 16 14 13 13 14 15 15 16 16 17 17 19 20 20 20 21 22 22 23
3 2 5 0 2 2 2 3 3 4 2 3 2 2 2 1 1 1 1 2 3 3 5 4 6 6 3 4 5 4 7 9 9 9 9 11 11 10 11 10 10 9 7 7 7 8 12 17 19 19 17 15 13 13 13 12 12 13 14 14 13 12 13 13 14 15 15 15 15 14 14 14 14 15 15 16 17 18 19 20 20 20 22 22 22 22
3 1 4 2 0 2 2 2 1 2 2 2 2 2 2 2 3 1 0 1 1 3 4 4 6 6 6 6 5 8 9 8 8 7 8 11 12 10 10 9 9 8 7 8 8 8 12 17 20 19 17 16 14 14 13 13 14 14 14 14 14 14 14 14 14 14 14 15 15 15 14 14 14 15 16 16 17 18 19 19 20 21 21 21 21 22
2 2 3 4 3 1 1 2 4 4 2 1 1 1 1 1 1 0 0 2 3 1 2 3 6 9 7 4 6 11 10 8 8 8 8 10 10 10 10 9 8 8 8 8 8 8 12 17 19 18 17 15 14 14 13 13 14 14 14 15 15 15 14 14 14 14 14 14 14 15 15 15 15 15 17 17 17 18 19 20 20 20 20 20 22 23
1 2 2 3 4 2 2 3 4 6 6 4 3 4 3 2 2 1 3 1 2 2 4 1 5 12 8 3 6 9 8 7 8 9 9 9 9 10 9 9 9 8 9 9 9 9 12 16 18 18 17 16 15 14 13 14 14 14 14 15 15 15 14 14 14 13 14 14 15 16 15 15 16 17 18 18 18 19 19 19 18 19 20 22 22 22
2 3 1 4 5 2 1 1 0 3 4 4 3 3 3 4 5 3 3 3 1 1 2 3 2 10 6 4 5 6 6 7 7 8 9 9 9 9 9 10 10 9 10 9 9 10 13 16 17 17 17 17 16 15 14 14 14 14 14 15 15 16 15 15 14 14 14 15 16 17 16 17 18 18 19 19 19 19 18 17 18 19 21 22 21 21
1 3 1 5 4 2 1 2 3 3 2 2 2 2 4 3 4 5 5 3 2 3 3 3 3 10 5 3 4 5 5 6 7 8 10 10 8 9 10 10 9 9 10 9 8 10 13 15 15 16 17 18 17 16 14 14 14 14 15 15 16 17 16 16 15 14 15 16 16 16 16 17 18 19 19 19 20 19 18 18 19 20 20 20 20 20
1 1 1 3 5 4 3 4 4 4 1 2 3 2 4 4 6 4 2 3 1 5 6 5 5 10 7 1 1 5 6 7 9 9 9 10 10 9 9 9 9 9 9 9 8 8 10 12 13 16 18 19 18 17 15 14 14 15 15 16 16 17 16 16 15 15 15 15 16 16 17 18 19 19 19 20 20 19 18 18 19 19 19 19 20 21
1 2 2 1 1 2 4 4 4 3 2 2 2 3 4 6 9 5 2 3 2 4 6 6 7 12 13 10 9 9 9 10 12 10 9 10 11 10 9 8 8 8 9 10 9 8 9 10 13 16 18 19 19 17 16 15 15 15 15 16 16 16 15 15 15 15 15 15 15 16 17 18 18 18 19 19 19 18 19 19 19 19 19 20 21 21
2 1 3 4 6 5 6 7 4 2 2 5 4 5 6 6 7 6 4 3 5 3 3 9 12 14 20 20 17 16 13 14 14 10 9 10 10 10 10 9 8 8 9 9 8 8 9 9 12 16 19 19 19 18 16 15 15 15 16 16 15 15 14 14 14 14 14 15 16 16 17 17 17 18 18 18 18 19 20 19 19 19 20 21 21 21
4 2 4 6 9 9 9 10 6 3 6 11 9 6 7 8 8 7 7 7 5 4 6 12 10 9 18 20 19 20 18 16 14 13 12 12 10 10 9 8 9 9 8 8 8 9 9 10 11 14 18 19 19 18 16 15 15 15 16 16 15 14 14 13 13 14 15 15 16 16 16 16 16 17 17 18 19 19 19 19 19 20 21 21 21 21
4 3 4 4 8 11 10 12 11 7 8 10 10 10 8 8 11 13 15 11 8 5 13 14 8 10 18 21 21 22 19 17 16 15 13 12 11 10 9 9 10 10 10 10 10 10 11 10 10 13 18 21 19 18 17 15 14 15 15 16 15 15 15 14 13 14 15 16 16 15 15 15 16 17 17 18 19 19 19 20 21 21 21 21 21 21
4 3 4 3 6 11 11 13 11 7 6 8 11 12 10 11 14 15 17 12 10 14 20 18 18 19 20 22 22 22 19 16 14 13 11 13 13 11 10 11 12 12 11 11 12 11 11 11 11 14 19 21 21 20 18 16 16 15 16 16 16 15 14 13 14 15 15 15 15 14 15 16 16 17 17 17 18 18 19 21 21 21 21 21 21 22
2 3 2 2 4 9 8 6 4 4 6 10 14 12 9 10 10 11 13 10 8 14 19 17 17 18 18 20 19 19 17 13 12 13 13 14 13 11 11 12 13 13 12 12 12 11 10 11 11 12 17 21 23 22 20 18 17 16 16 16 16 15 14 13 14 15 15 15 15 15 16 15 15 16 16 17 18 19 20 21 21 22 22 22 21 21
3 2 2 5 4 7 3 3 6 7 7 10 15 15 9 7 7 7 8 7 9 10 12 9 9 13 15 13 11 12 14 13 15 16 13 13 12 10 11 14 14 13 13 12 11 10 10 11 10 12 18 23 24 22 21 19 17 16 17 16 15 14 14 14 15 15 15 15 16 16 15 14 15 16 16 17 19 19 20 21 22 22 22 22 21 21
4 2 1 3 2 6 4 6 8 8 6 6 8 8 7 6 6 5 5 9 10 7 4 5 9 13 14 13 12 15 15 15 16 15 12 13 13 11 12 14 14 14 13 12 11 11 11 11 12 16 22 26 25 24 22 20 18 18 17 16 15 14 14 15 15 15 16 16 16 16 16 15 15 16 17 18 18 19 20 21 22 22 22 22 21 20
4 4 2 1 2 5 7 9 8 6 3 4 4 6 6 6 8 8 9 11 10 8 7 9 12 16 16 16 17 18 18 16 15 14 12 12 12 12 14 15 14 14 13 11 11 11 10 11 15 20 24 26 25 24 21 19 19 18 17 15 15 15 15 15 16 16 16 16 16 16 15 15 15 16 17 17 18 19 21 21 22 22 21 22 21 20
4 4 1 1 1 4 5 7 7 4 5 8 5 2 4 4 5 7 11 14 11 11 13 15 17 19 20 18 17 18 19 16 13 13 15 14 12 13 15 16 15 14 13 12 12 11 10 12 15 19 23 25 24 23 21 20 19 18 16 16 15 16 16 16 16 17 17 17 17 16 15 15 15 16 16 17 18 19 20 20 21 21 21 21 21 21
6 4 1 1 1 3 4 3 2 6 9 11 7 1 0 2 3 1 9 14 13 11 11 14 18 20 19 17 17 17 15 11 9 11 15 16 16 14 15 16 16 14 13 12 12 12 14 17 20 22 25 25 24 23 22 22 20 18 17 17 17 17 17 16 17 17 17 17 16 15 15 15 15 15 16 17 18 19 19 20 20 21 21 21 21 21
6 5 1 1 2 2 0 2 4 7 11 10 4 2 1 1 2 2 4 11 13 8 8 12 16 18 17 16 17 15 10 9 11 13 13 15 17 17 16 17 16 14 13 14 16 17 20 22 23 24 24 24 23 24 24 21 19 18 18 19 19 19 18 17 18 19 18 17 16 15 14 15 14 15 16 17 18 18 19 20 21 21 20 20 21 20
4 3 4 2 1 1 1 3 4 5 6 5 3 3 3 1 3 4 1 8 12 9 8 10 13 16 17 17 17 12 8 10 15 14 11 10 12 13 14 15 15 15 15 16 17 18 19 21 22 22 22 22 24 25 23 21 20 19 19 20 21 19 19 19 20 19 18 16 15 14 14 14 14 15 16 17 17 18 19 21 22 21 19 19 20 19
5 3 4 2 2 1 2 2 3 3 6 4 3 5 5 2 1 2 2 6 8 7 5 6 10 16 17 18 18 12 8 12 15 15 16 13 7 8 10 11 12 15 19 20 19 19 21 22 22 21 21 22 24 25 22 20 20 19 21 22 21 20 20 21 21 20 17 15 14 14 14 14 15 15 15 16 17 18 19 20 20 20 18 18 18 19
5 4 2 1 3 2 3 3 3 5 7 4 3 4 4 2 0 3 7 10 10 12 10 7 12 18 17 17 17 11 8 11 14 17 22 19 10 7 10 11 12 13 16 20 21 22 22 22 21 21 23 25 27 25 22 21 20 21 23 23 21 21 23 24 22 18 15 14 14 14 14 14 14 15 15 16 17 17 17 17 18 18 18 18 18 19
1 1 1 2 4 4 4 3 4 5 7 5 3 4 3 2 2 5 9 11 14 18 17 13 16 19 18 16 13 10 11 14 16 20 24 22 17 14 13 15 17 17 18 21 22 22 20 21 24 26 27 28 27 24 23 22 22 24 25 23 22 25 26 23 19 15 14 14 14 14 14 14 13 14 15 15 15 15 15 14 16 17 17 18 19 19
1 1 1 2 3 3 3 3 4 6 5 2 2 4 2 3 6 8 10 12 15 18 18 17 16 17 17 17 14 13 16 19 20 21 22 21 21 19 16 14 15 16 19 19 20 22 22 22 24 27 28 27 25 24 24 23 25 26 25 23 26 28 25 20 17 15 14 14 14 14 14 13 13 14 13 12 11 12 13 13 13 15 16 17 18 19
4 3 2 3 3 2 1 0 3 6 4 4 3 2 1 1 8 12 12 14 15 15 16 16 15 15 16 18 19 19 21 22 22 21 21 21 20 19 18 14 12 14 17 17 20 24 24 22 23 29 31 28 25 25 24 25 27 27 25 26 30 27 22 18 17 15 15 15 15 14 13 13 13 12 11 10 9 10 12 12 12 13 15 16 17 18
3 4 2 3 3 1 0 2 2 7 6 5 4 4 6 7 11 12 13 14 14 13 13 14 16 17 17 18 20 22 21 22 22 22 21 21 20 19 18 15 12 14 17 19 22 24 25 23 24 28 30 28 26 26 26 27 28 27 27 30 29 23 19 18 17 16 16 16 15 14 13 12 11 10 9 8 7 8 10 10 11 13 14 15 15 16
3 4 3 3 4 3 4 6 7 9 10 4 6 8 13 14 13 11 11 12 12 11 11 13 16 19 19 18 20 20 19 19 22 23 21 20 20 20 19 18 16 16 19 21 22 23 25 25 24 24 26 28 28 28 29 29 29 29 30 31 26 21 19 18 17 17 17 16 15 14 13 12 10 8 7 6 5 7 8 9 11 13 14 14 14 15
2 2 3 2 4 4 5 8 8 9 12 10 7 10 12 12 11 9 10 11 12 12 12 12 15 18 18 18 18 18 18 20 21 22 21 20 20 20 19 19 20 20 19 19 20 22 24 23 21 20 23 27 30 31 31 31 31 32 32 29 23 21 20 18 17 18 18 17 16 14 12 12 10 7 6 5 4 5 7 8 10 12 13 14 14 14
2 0 1 2 3 3 4 7 8 9 14 16 14 12 11 9 8 8 10 12 13 14 14 13 15 17 17 17 17 18 20 20 20 21 20 18 19 20 19 18 19 20 19 20 22 22 21 20 19 20 22 26 31 33 32 32 33 33 31 27 23 21 19 18 18 19 19 18 17 15 13 12 9 6 5 4 4 4 5 6 7 10 12 13 14 14
2 2 2 3 3 3 7 11 12 11 14 15 13 11 11 12 13 13 12 12 13 15 15 15 15 14 13 15 17 18 20 20 19 19 18 17 17 18 17 17 20 22 22 22 22 20 20 21 22 22 22 25 31 34 34 34 34 33 30 27 25 22 20 20 20 20 20 19 17 15 14 12 9 7 6 5 4 3 4 4 5 7 10 11 13 14
1 2 2 2 4 6 8 11 13 12 12 12 10 9 11 13 14 15 15 14 14 15 16 17 17 14 13 14 15 16 19 20 18 18 18 17 16 16 17 20 24 26 25 24 21 21 22 23 24 24 25 26 30 33 34 34 34 32 30 28 27 24 23 22 21 20 20 19 18 17 15 12 10 8 6 5 4 3 3 4 4 7 9 10 11 13
3 4 3 2 4 6 8 11 12 11 11 11 12 14 15 14 14 14 15 16 16 16 16 19 21 21 20 18 16 14 16 18 19 19 18 17 16 17 20 22 25 27 28 26 21 20 23 25 26 25 25 27 28 29 33 34 33 31 30 29 27 26 25 24 22 21 21 20 19 18 16 13 11 8 7 6 4 3 3 3 4 7 9 10 10 11
1 4 4 4 6 10 13 13 10 8 10 14 15 17 17 14 12 14 16 17 17 17 17 17 20 21 21 22 22 18 14 16 19 19 17 17 20 24 26 27 25 25 28 28 21 18 21 24 25 24 26 28 27 27 32 33 31 30 30 29 28 27 26 25 24 23 23 22 21 19 16 14 12 9 8 7 5 3 4 4 3 3 4 7 9 9
Wind_Direction
66 65 39 42 331 322 327 67 84 232 211 207 217 216 261 278 279 276 271 272 307 322 272 211 234 245 218 214 201 192 190 198 207 201 208 215 217 227 220 216 224 229 251 288 328 351 4 5 332 349 351 346 346 345 343 345 343 338 338 340 341 342 342 343 347 347 340 339 340 337 337 336 335 333 334 342 342 340 342 341 342 355 9 4 345 330
58 76 39 266 268 279 146 91 42 30 62 149 172 202 300 280 278 293 273 274 12 21 277 207 222 251 227 216 205 184 192 207 205 198 210 217 222 227 210 217 232 240 266 290 327 354 7 226 285 324 337 347 345 339 338 341 339 335 337 340 341 341 341 343 348 346 339 341 341 335 334 332 331 330 328 331 334 335 336 341 342 342 352 359 360 1
47 77 265 256 231 105 78 62 50 43 48 36 79 87 319 282 291 306 277 277 11 24 278 222 212 254 237 219 219 198 202 216 209 202 209 210 217 226 212 217 234 255 285 294 325 340 252 224 271 308 340 346 334 329 330 332 333 333 336 336 336 339 341 343 346 342 336 339 338 331 332 331 327 325 322 322 331 332 327 334 341 339 341 345 346 350
68 11 257 215 89 83 47 24 44 39 31 27 40 39 294 284 332 306 293 318 312 272 260 213 226 262 242 219 245 223 214 239 228 217 220 213 215 219 208 202 211 237 274 288 301 283 230 223 252 293 328 321 313 317 322 328 331 333 334 332 334 340 341 341 343 339 336 336 333 331 332 331 330 326 321 322 333 337 332 331 336 337 338 338 338 338
117 249 172 67 54 74 67 8 45 41 353 300 219 197 273 281 260 253 282 326 317 312 138 153 292 283 212 209 244 230 220 253 240 227 237 235 229 218 203 201 209 224 238 248 263 248 231 227 239 267 286 282 299 308 317 327 330 333 331 329 335 340 341 340 339 339 340 337 332 333 334 334 336 334 333 336 339 340 337 333 330 331 332 333 333 331
121 275 46 62 36 55 70 357 70 95 347 314 238 210 246 268 258 264 303 339 341 342 329 39 355 298 283 222 241 227 220 240 228 227 239 239 233 214 207 218 224 230 228 232 242 235 232 233 236 245 252 265 287 298 314 325 327 329 327 328 335 339 339 337 337 339 338 335 332 333 334 333 333 332 332 333 332 331 330 325 321 322 325 328 328 327
102 2 53 87 61 46 43 332 214 135 45 321 238 209 238 262 261 272 299 348 348 284 274 74 98 275 308 254 246 226 221 241 239 239 243 238 229 215 212 223 226 237 243 246 242 234 237 243 239 240 243 256 276 290 309 319 321 323 323 327 333 337 339 336 335 336 333 333 331 328 328 326 322 321 320 320 320 319 318 317 317 320 324 329 330 330
168 28 39 65 66 50 34 337 239 148 93 274 254 299 304 290 279 270 251 203 234 279 306 41 126 253 290 273 274 232 221 252 254 247 248 238 228 220 219 226 225 233 236 237 237 233 240 249 245 239 238 249 271 287 300 311 314 317 318 322 329 338 343 339 334 331 329 331 329 324 323 319 315 314 313 314 314 314 313 315 319 323 326 329 331 329
175 82 60 90 69 50 241 266 231 158 140 262 275 308 298 278 269 249 190 202 257 351 320 305 106 258 274 274 358 45 225 260 256 245 244 235 226 221 222 230 231 233 229 225 230 231 243 255 247 236 237 250 269 281 292 305 308 310 314 317 326 337 343 341 332 324 325 329 326 322 319 314 312 311 310 311 312 312 314 316 319 322 322 322 323 323
128 227 192 129 99 248 250 253 216 163 212 277 301 307 306 308 280 148 132 151 43 17 272 251 124 24 276 273 358 49 240 253 252 247 243 232 223 217 220 228 231 236 235 230 232 231 244 261 247 233 238 252 266 277 288 298 300 304 308 313 323 329 333 335 327 319 322 326 323 318 312 309 309 309 310 310 310 312 315 315 316 318 319 319 320 321
330 312 178 119 158 216 261 276 216 178 229 318 355 327 334 18 41 72 85 82 63 324 259 226 131 91 302 279 228 197 223 221 227 249 248 229 219 217 221 229 228 233 235 234 234 234 245 259 242 231 240 253 263 272 282 288 290 297 302 309 319 320 318 323 321 315 317 319 317 311 306 304 306 308 310 309 308 311 313 312 314 316 317 317 318 319
338 356 255 272 249 173 15 321 294 182 295 8 13 339 349 354 19 32 0 40 72 280 258 197 138 115 236 267 243 229 239 216 208 231 232 220 220 221 225 229 226 227 232 232 233 234 243 246 230 229 244 254 258 263 272 278 280 288 295 304 314 311 307 311 313 311 312 314 312 308 305 302 302 304 306 307 306 307 309 311 313 314 315 316 317 318
313 248 277 308 296 73 46 347 338 357 21 21 4 10 19 354 4 10 336 1 192 256 226 172 238 253 228 254 260 254 251 232 217 219 214 212 217 223 230 232 228 223 228 231 229 231 235 233 228 233 246 249 249 257 264 267 270 278 288 300 308 304 299 303 307 308 310 312 309 307 306 303 301 301 302 304 302 303 306 308 310 312 314 314 314 316
335 296 309 333 299 66 89 73 340 331 1 7 3 42 52 32 9 338 308 320 284 278 237 177 223 288 271 273 250 247 257 238 220 216 211 209 213 224 229 227 227 225 226 228 226 227 228 229 232 238 242 240 242 251 253 255 263 273 285 298 303 298 294 298 303 305 307 308 307 307 304 302 302 301 299 300 300 302 305 306 308 309 309 308 309 311
21 310 278 203 267 42 87 147 169 162 1 324 179 109 96 112 86 280 268 286 299 302 279 179 139 231 272 284 227 239 281 265 227 224 224 229 229 232 236 229 228 230 228 228 227 227 229 230 233 235 233 230 236 245 247 253 262 272 287 297 298 294 293 297 300 302 304 306 307 304 299 297 299 299 297 296 298 301 303 304 305 306 306 304 304 306
123 271 255 251 356 99 94 211 139 99 63 276 124 90 65 170 154 179 222 221 276 319 294 250 208 215 235 263 250 308 308 282 252 247 245 249 245 238 241 236 228 230 230 226 225 229 231 230 229 227 225 227 236 243 247 256 265 274 287 294 296 294 293 295 299 301 302 304 305 299 293 292 293 294 293 293 296 298 300 302 302 303 303 302 302 304
46 279 265 15 18 97 142 228 97 52 6 55 48 73 222 174 130 112 277 285 59 1 282 283 276 284 304 290 308 2 305 276 258 248 243 245 244 238 239 236 229 230 230 225 224 228 228 225 223 223 224 229 236 242 249 258 268 278 287 292 294 292 289 293 300 302 302 303 300 291 286 288 290 291 290 291 294 298 298 298 299 301 300 300 301 302
138 288 281 121 306 280 138 121 62 26 100 103 72 213 187 99 87 94 308 341 39 258 274 307 286 295 327 305 319 348 283 268 254 243 245 247 243 239 240 236 231 229 228 229 228 228 226 222 221 222 225 231 238 245 254 262 271 280 287 290 291 287 283 289 299 302 300 297 292 285 283 287 289 288 287 289 292 294 295 296 298 299 298 300 301 300
117 303 299 209 186 284 34 71 22 352 51 108 159 161 102 67 332 40 357 335 358 303 292 292 283 281 230 241 291 291 256 260 257 243 242 246 239 238 242 239 235 234 232 233 231 228 225 221 220 222 225 231 238 246 255 265 273 278 282 285 286 282 281 287 297 299 294 288 285 281 282 285 288 287 285 287 290 292 294 295 296 297 298 300 300 299
98 114 286 311 272 310 18 72 245 305 5 53 55 28 43 140 178 200 80 163 198 293 298 310 317 293 228 208 244 264 258 256 257 246 239 242 238 236 239 238 235 233 231 230 228 226 223 221 222 224 226 232 238 245 253 263 270 273 277 280 280 278 277 283 293 297 291 284 281 278 280 284 286 286 284 286 290 292 293 294 295 296 297 298 298 299
75 137 254 304 333 327 322 218 193 181 168 111 56 330 310 109 144 310 49 145 142 169 238 312 312 284 260 203 215 254 265 251 243 245 244 243 240 238 236 235 234 231 231 231 227 225 223 222 223 224 228 234 237 241 250 258 264 269 273 276 276 272 271 277 289 293 286 280 277 276 280 284 285 285 285 287 290 291 292 295 296 295 294 295 297 299
123 163 222 295 313 275 234 233 193 177 168 158 176 195 186 151 127 46 313 285 115 158 186 171 294 281 274 189 208 245 257 247 239 241 248 248 242 241 238 233 232 229 230 229 225 223 221 220 220 221 224 227 230 236 246 253 258 263 269 273 270 264 265 275 285 287 280 275 275 278 281 283 283 284 286 287 288 289 292 295 294 293 293 296 298 299
143 112 156 267 274 238 206 292 121 168 156 146 174 174 140 132 129 135 243 255 198 209 176 109 272 272 260 170 205 239 241 250 246 233 244 253 247 245 243 238 233 231 232 229 225 223 219 219 219 219 220 222 226 234 243 249 254 261 269 269 262 258 264 276 284 282 274 271 275 279 281 281 283 285 287 287 288 289 291 291 290 292 294 296 297 298
110 82 31 272 287 16 24 328 355 20 72 145 221 157 142 152 139 150 179 184 201 216 159 108 254 270 271 175 212 255 262 268 261 240 244 254 255 249 244 241 236 231 233 230 226 223 219 219 217 214 216 219 225 233 241 249 256 262 268 264 256 257 267 278 282 277 271 272 277 278 278 280 284 286 287 287 288 289 289 288 290 293 293 294 296 297
235 160 67 334 335 355 355 338 334 335 313 219 234 167 142 120 104 115 131 95 274 223 168 151 243 264 271 203 237 278 277 270 260 247 243 250 257 254 244 242 236 230 233 229 225 224 217 215 213 213 216 219 225 235 243 252 258 261 261 257 254 260 270 278 279 273 271 274 277 277 278 280 284 286 286 287 288 287 287 289 292 293 293 293 294 295
213 198 137 80 2 311 302 299 305 295 245 225 196 165 161 136 132 149 127 101 248 229 163 172 237 268 281 293 301 292 281 279 274 259 246 247 253 255 250 245 236 229 230 226 222 219 216 215 215 215 218 220 226 234 243 250 255 256 254 251 253 261 269 275 274 271 272 273 276 279 280 280 282 284 285 287 286 285 288 292 293 292 292 292 293 294
92 233 215 189 196 214 238 249 269 3 282 267 254 199 189 176 149 124 109 171 203 182 192 229 239 268 285 291 297 297 291 290 290 283 271 263 258 258 255 248 241 233 229 227 222 220 219 219 220 218 218 221 225 232 238 244 248 249 247 247 252 260 267 271 270 268 269 272 276 279 279 279 281 283 284 284 284 286 290 292 292 291 292 293 294 293
90 294 251 211 228 242 251 261 279 324 272 265 264 236 200 183 155 148 194 211 156 111 264 251 228 251 278 285 293 295 295 295 293 290 287 283 277 270 262 252 246 241 235 229 223 222 222 221 221 219 217 219 223 228 234 240 244 244 243 246 253 261 266 267 264 262 266 272 277 276 275 279 281 283 283 283 285 288 290 291 291 293 295 294 293 292
119 260 247 201 251 260 260 268 270 262 258 258 257 252 233 194 172 190 221 215 153 193 255 263 263 268 277 284 288 288 290 292 290 289 289 287 283 275 266 257 251 245 239 234 230 224 223 224 222 218 216 216 219 224 230 236 238 238 240 245 253 261 265 262 258 259 267 272 273 270 272 279 282 283 283 284 286 288 289 292 294 295 296 295 294 293
142 246 240 200 275 271 256 259 259 248 260 267 256 245 235 217 195 204 231 226 198 234 255 267 278 278 276 278 279 282 285 286 286 287 285 282 280 274 265 257 253 251 243 236 234 227 222 224 223 218 215 214 217 222 228 231 234 236 240 246 253 260 261 257 254 259 267 269 265 266 275 281 282 283 283 284 286 289 291 294 296 296 296 296 295 296
181 260 242 119 310 284 259 262 263 229 244 269 274 264 243 236 219 213 236 236 217 245 259 268 278 277 270 268 269 274 281 284 285 283 278 276 275 270 265 259 255 255 250 242 237 230 224 223 220 216 213 213 218 223 227 231 235 239 242 247 253 257 256 253 254 260 265 265 264 270 277 279 280 281 282 284 287 291 293 295 297 297 297 297 298 298
178 266 357 61 346 282 270 355 319 283 266 269 280 277 251 230 219 206 221 214 196 230 263 281 282 273 271 270 266 267 273 282 285 283 281 279 272 259 257 262 260 255 252 247 238 228 223 220 214 213 214 216 219 222 225 230 232 235 240 245 250 254 253 252 255 259 261 263 268 273 275 275 278 280 282 285 289 292 295 296 297 298 298 298 299 300
155 155 58 68 305 270 303 334 313 311 319 294 271 249 210 206 226 231 241 224 202 207 265 270 258 266 281 293 291 283 282 282 281 283 285 284 279 267 256 259 262 259 253 248 241 231 225 220 216 217 218 218 219 222 226 228 229 233 240 245 249 251 250 251 255 258 259 262 267 271 274 276 277 280 283 287 291 293 295 297 297 298 298 299 300 300
132 120 137 142 229 275 311 326 323 339 331 273 232 175 181 228 239 242 259 248 214 197 224 249 266 278 284 286 285 284 282 277 277 281 282 278 278 276 269 263 260 258 255 247 240 233 225 221 221 221 221 221 222 225 228 228 230 236 241 244 246 246 247 251 254 254 256 262 266 270 274 276 276 280 285 287 291 294 297 298 298 298 299 299 300 299
129 118 172 179 194 275 323 352 344 322 243 257 275 201 223 251 219 233 272 272 248 227 235 254 267 271 272 274 275 277 277 279 281 281 278 273 266 264 268 268 261 255 253 248 240 235 226 219 218 218 220 221 222 222 222 224 229 234 237 239 240 242 247 251 252 252 256 261 267 270 271 272 277 281 284 288 293 296 297 297 297 298 299 299 299 299
139 135 168 167 194 280 342 36 308 284 286 296 316 349 201 57 91 290 290 281 265 238 231 249 258 261 269 274 273 276 284 294 294 276 268 266 262 253 252 258 257 249 245 240 232 227 222 217 216 218 220 220 219 217 219 223 226 227 229 234 237 240 246 248 248 252 256 260 264 267 268 272 278 281 284 290 295 296 298 297 297 298 300 300 300 301
131 135 176 264 220 215 313 249 264 308 315 312 334 68 77 73 131 175 272 284 282 260 227 243 260 268 275 279 280 287 304 316 300 283 268 256 251 246 242 245 248 246 242 239 234 231 227 223 221 222 221 217 216 217 219 222 223 223 226 230 233 237 242 245 248 252 255 259 261 263 267 273 277 280 286 291 294 295 296 297 298 300 301 300 300 301
106 145 168 201 254 107 73 295 311 339 308 283 306 320 302 253 172 141 127 286 285 277 247 240 259 277 287 293 297 306 328 318 300 297 299 273 247 243 243 243 244 245 241 237 232 228 225 221 219 219 217 213 216 220 221 221 221 220 223 226 230 236 240 244 249 251 254 257 260 262 268 273 276 280 286 290 291 292 295 297 299 300 301 300 297 297
49 46 116 136 292 52 104 254 270 255 254 275 321 290 287 299 165 103 10 284 271 283 275 247 267 287 298 303 306 316 329 310 299 302 314 311 272 242 248 249 246 244 242 238 230 222 220 216 214 213 210 210 217 221 220 221 222 219 222 226 230 235 240 244 249 252 254 258 261 264 267 271 275 279 284 287 288 291 296 298 299 300 301 298 293 293
41 22 68 170 244 192 159 226 250 244 257 299 323 265 274 310 352 2 332 306 306 321 321 304 298 303 307 308 310 314 303 294 293 299 307 311 299 259 252 253 250 244 241 237 231 226 221 212 204 202 204 211 220 222 220 221 221 221 225 230 232 237 243 248 252 253 254 257 261 264 266 269 274 278 281 284 289 294 297 297 299 300 299 296 294 294
77 67 136 182 209 192 190 237 272 263 263 285 289 252 258 318 350 338 316 307 317 322 321 321 314 310 310 311 311 306 292 287 289 293 299 304 301 290 273 260 255 250 244 237 231 224 215 207 205 207 213 220 223 221 219 218 218 223 230 232 234 241 249 254 254 251 251 255 259 262 266 269 272 277 282 286 291 295 296 298 299 298 297 297 298 296
184 160 141 174 196 185 182 221 279 284 263 214 202 231 239 342 324 307 298 303 312 313 314 318 314 311 313 313 309 304 300 298 297 297 301 302 300 298 290 273 260 255 249 241 231 220 211 208 210 213 218 222 219 217 217 215 217 224 229 231 238 247 254 256 252 249 250 254 259 262 265 268 273 279 285 288 291 293 296 300 301 299 299 298 296 295
181 174 226 214 191 156 110 222 318 308 268 160 143 277 217 295 299 298 301 307 309 309 313 315 313 316 319 315 312 311 308 308 308 306 307 306 304 303 298 283 263 254 250 240 230 221 212 210 212 215 219 219 215 215 214 212 217 223 226 233 244 252 256 253 250 250 250 254 258 261 264 269 275 281 284 283 288 293 296 301 304 302 300 297 294 295
193 190 241 256 214 155 138 213 264 298 276 185 171 274 261 255 281 298 305 306 309 315 318 317 317 321 322 316 314 313 312 312 312 312 313 312 311 309 306 296 276 259 251 243 234 224 215 214 216 217 219 217 213 213 212 213 218 221 225 237 247 252 252 249 248 249 249 253 259 262 265 272 277 280 278 276 282 289 294 302 306 303 300 297 295 293
222 195 192 234 234 220 233 238 252 287 291 238 200 246 267 277 289 296 295 296 305 317 321 320 318 319 320 318 315 313 315 315 314 315 316 315 313 312 311 307 296 276 261 252 244 229 219 219 219 215 216 215 213 213 214 216 217 218 228 240 246 246 247 247 245 246 249 253 258 262 267 273 276 274 269 261 267 286 297 302 303 301 300 299 297 293
277 191 170 209 259 266 262 261 271 292 297 291 266 257 269 282 291 299 303 305 311 317 319 318 315 315 318 319 316 315 316 317 316 316 316 316 315 314 314 312 305 291 271 256 246 234 223 220 220 216 214 214 214 214 215 217 218 222 232 241 240 240 245 244 241 245 250 253 257 263 267 270 272 267 251 239 254 282 293 298 299 299 299 298 298 297
307 291 222 248 286 320 296 283 293 299 297 299 300 293 289 291 294 307 314 313 313 316 316 315 315 315 316 317 317 316 316 317 318 317 316 318 316 315 316 315 310 301 284 262 250 238 222 214 216 217 214 214 215 215 216 217 221 228 235 237 236 237 241 239 239 245 250 251 255 261 263 265 268 261 241 236 254 273 282 290 295 296 295 296 297 298
304 343 313 271 268 283 277 279 286 287 283 286 292 300 311 318 318 317 315 310 309 311 311 311 312 312 313 317 319 318 316 317 318 316 315 317 316 315 316 314 310 306 295 277 259 237 217 213 217 217 216 218 218 217 216 219 224 229 231 231 232 234 234 235 239 244 247 251 255 258 259 260 260 253 244 243 247 257 274 284 288 293 297 297 296 293
312 326 292 282 284 273 273 287 300 300 284 275 281 298 310 314 315 314 312 312 314 313 312 313 315 316 317 318 318 317 315 314 315 316 316 316 315 315 316 314 313 311 304 290 268 240 222 220 222 219 218 222 222 217 216 220 225 227 227 228 230 229 229 233 238 241 244 249 253 254 255 255 252 246 242 243 243 251 268 271 278 291 297 296 290 284
2 326 302 338 326 300 293 301 311 313 300 292 303 312 311 312 314 313 313 316 318 317 319 321 322 323 322 320 319 317 313 312 315 317 317 316 316 316 315 315 314 312 309 301 279 248 232 228 227 225 224 226 225 218 216 220 223 223 224 227 227 225 226 230 234 237 241 245 248 250 250 249 247 241 235 240 251 266 266 255 258 275 283 285 284 282
358 311 308 321 301 286 286 293 300 300 292 296 307 311 310 312 315 313 314 318 318 320 323 324 322 321 321 320 320 320 314 311 315 318 317 316 316 316 316 316 315 312 310 306 287 255 241 235 231 229 229 229 226 219 217 220 221 220 222 225 224 223 225 226 228 232 236 240 243 246 246 245 244 238 230 234 246 267 284 287 276 266 276 281 286 291
Height
868 870 879 882 883 883 885 888 887 889 891 889 889 890 889 889 886 882 880 880 881 879 873 874 873 872 878 883 886 889 890 891 890 890 891 890 889 888 888 888 888 888 888 888 887 885 885 886 886 885 883 882 880 879 878 877 875 873 872 870 868 867 865 863 861 860 858 856 854 853 852 850 849 848 847 846 845 843 842 841 840 839 837 836 836 835
869 874 883 885 884 885 888 889 886 886 890 889 887 887 886 885 883 880 882 880 880 881 876 878 878 872 876 882 884 887 888 886 886 887 887 887 886 885 886 886 886 887 886 886 884 883 885 885 884 884 881 880 879 877 876 875 874 872 870 868 867 865 864 862 860 859 857 856 855 853 852 850 849 848 846 845 844 842 841 840 840 839 837 836 836 835
873 879 883 884 886 886 887 888 885 886 887 886 886 887 884 884 884 880 878 878 880 881 876 879 880 870 874 883 882 885 885 882 883 883 882 882 883 883 884 884 884 885 884 883 882 882 884 884 882 881 879 878 876 875 874 873 872 870 868 866 865 863 862 861 859 858 856 855 855 853 852 850 848 847 845 844 843 841 840 839 839 838 837 836 835 834
873 880 882 883 884 882 883 886 886 886 885 887 887 885 883 886 888 881 876 877 879 881 878 879 881 873 874 880 880 882 882 881 881 881 881 880 879 880 881 882 882 883 882 881 880 881 882 881 880 879 877 875 874 873 872 871 870 868 866 864 863 862 860 859 858 857 856 854 854 852 851 849 847 846 845 844 842 841 839 838 838 837 836 835 834 833
874 880 882 882 881 880 883 885 888 886 883 887 887 882 881 883 886 884 882 881 877 879 881 879 874 868 874 879 875 878 881 881 880 879 879 879 878 879 879 880 881 880 880 880 879 880 880 878 877 876 874 873 872 871 870 869 868 866 865 863 861 860 859 858 857 855 854 853 852 851 849 848 846 845 843 842 840 839 838 837 836 836 835 834 833 832
878 882 881 879 879 883 884 883 889 890 885 885 881 879 880 880 884 885 886 887 877 870 874 876 862 854 871 881 873 875 879 877 878 878 876 876 877 878 877 878 878 878 878 877 877 877 877 876 875 874 872 871 870 869 868 867 866 864 863 861 859 858 857 856 855 854 853 852 851 850 848 847 845 844 843 842 840 839 838 837 835 835 834 833 832 830
880 883 883 881 881 884 885 884 889 892 889 883 875 877 881 882 886 886 887 888 877 865 869 877 868 859 866 866 865 875 879 876 877 876 874 874 875 875 875 875 875 875 874 874 875 874 873 873 872 871 870 869 868 867 866 865 864 863 861 860 857 856 855 854 853 853 852 851 850 849 848 847 845 843 842 841 840 838 837 836 835 833 832 832 831 829
881 881 882 883 884 885 884 883 887 891 889 877 869 876 880 882 885 884 886 889 883 875 874 877 876 875 866 857 869 880 876 877 878 873 871 871 872 872 872 872 871 871 871 872 872 871 871 870 869 869 867 867 865 864 864 862 862 861 859 858 856 854 853 852 852 851 851 850 849 848 847 846 845 843 841 840 839 837 836 835 833 832 831 830 830 828
884 879 880 883 884 884 882 882 886 890 887 875 873 878 880 883 883 884 888 888 888 882 873 874 878 876 862 857 879 887 875 874 872 867 867 865 868 869 868 868 868 869 869 869 869 868 868 868 866 866 864 864 863 862 861 860 859 859 857 856 854 853 850 849 850 849 849 849 847 847 846 845 843 842 840 838 837 836 834 833 832 831 830 828 828 827
885 882 883 883 883 883 881 883 886 887 884 878 878 877 878 884 883 886 888 883 887 881 868 873 877 872 857 847 867 880 869 863 858 858 861 860 863 865 864 866 865 866 866 865 866 865 865 865 863 863 862 861 860 859 859 858 857 856 855 854 853 851 849 847 847 847 847 847 846 845 844 843 842 840 839 837 836 835 833 832 830 829 828 826 826 825
887 887 887 885 883 884 884 885 887 887 884 880 880 878 876 881 882 885 888 885 882 870 866 878 877 874 865 844 850 859 848 843 844 847 854 857 861 862 861 863 862 862 863 862 863 862 862 862 861 860 859 858 857 857 856 855 855 854 852 852 850 849 848 845 844 844 844 844 843 843 842 841 840 838 837 836 834 833 831 830 829 827 826 825 824 823
888 885 886 887 885 887 886 884 885 890 889 881 883 883 871 869 874 876 881 886 873 853 865 886 880 882 876 843 837 846 843 845 844 840 845 851 856 858 858 859 859 859 860 860 860 859 860 859 858 858 856 855 855 854 854 853 852 851 850 850 848 847 846 843 842 842 842 841 841 840 840 839 838 837 836 834 833 832 830 829 827 826 824 823 822 821
883 886 889 887 886 889 885 879 880 884 886 882 884 886 871 865 869 863 867 878 868 854 873 890 878 878 872 843 832 837 838 845 847 843 843 846 851 853 854 855 856 857 857 857 858 857 857 856 855 855 853 853 852 851 851 850 849 849 848 847 846 845 844 841 840 839 839 839 838 837 837 836 836 835 834 833 831 830 829 827 826 824 823 821 820 819
874 884 890 885 883 888 885 880 880 880 884 885 888 886 877 878 879 869 871 877 868 864 879 890 881 869 854 835 830 831 833 840 846 847 846 845 848 849 850 853 853 854 854 854 855 854 853 853 852 851 850 850 849 848 848 847 846 846 845 844 843 842 841 839 838 837 836 836 835 834 834 834 833 832 831 831 829 828 827 826 825 823 822 820 819 818
878 874 879 880 882 886 886 886 886 886 889 891 895 891 883 889 890 882 881 877 872 878 883 883 876 858 838 826 829 836 842 849 849 849 850 848 849 849 849 851 850 850 851 851 851 850 849 849 849 848 848 846 846 845 844 844 844 843 842 841 840 839 838 837 836 834 834 833 832 832 831 831 831 830 829 828 827 827 826 825 823 822 821 819 818 816
885 873 879 886 887 887 887 890 893 890 889 894 899 892 888 896 897 893 893 892 899 904 894 880 865 852 838 829 840 850 848 850 851 850 852 849 848 851 849 848 848 847 848 847 847 846 845 846 845 845 844 843 843 842 841 841 840 840 840 838 837 836 835 834 833 832 831 830 830 829 828 828 828 827 827 826 825 824 823 823 821 820 819 818 816 815
880 872 883 890 888 890 890 891 895 890 885 892 894 891 898 906 901 897 900 909 918 906 886 874 857 849 843 827 839 856 846 844 851 848 848 847 846 849 846 844 844 843 843 843 842 842 841 842 842 841 840 839 839 839 838 838 837 837 836 835 834 833 832 831 830 830 829 828 827 826 826 826 825 825 824 823 822 821 821 820 819 818 817 816 815 813
887 874 882 891 885 890 897 893 895 897 891 889 889 893 904 906 902 905 903 903 909 895 880 876 862 854 851 830 828 844 838 834 842 844 845 845 845 845 842 839 839 838 838 838 837 838 838 838 838 837 836 835 835 835 835 835 834 834 833 832 831 830 829 828 827 827 827 826 825 824 824 823 822 822 821 820 820 819 818 817 817 816 815 814 813 811
898 877 877 895 890 889 898 892 889 897 898 891 891 897 899 894 896 905 901 894 901 898 884 880 873 862 853 833 817 820 822 821 828 838 841 840 839 838 835 834 834 834 834 834 834 834 834 834 833 832 832 831 831 831 831 831 831 830 830 829 828 827 826 825 825 825 824 824 823 822 821 821 820 819 818 817 817 816 815 814 814 813 812 811 810 809
902 885 873 890 897 892 893 890 886 891 898 896 896 899 898 897 899 903 906 906 905 905 894 882 869 847 832 825 814 809 814 817 820 828 831 830 830 830 829 828 829 829 829 829 830 830 829 829 828 828 828 827 827 828 828 828 828 827 827 826 825 824 823 823 822 822 822 821 821 820 819 818 817 817 816 815 814 813 812 812 811 810 809 808 807 806
903 894 877 883 896 891 883 885 883 881 889 892 892 896 896 900 907 907 913 918 908 904 908 903 877 836 814 818 816 810 813 817 819 821 821 822 824 824 824 823 823 824 825 825 825 824 824 824 823 824 823 823 824 824 824 824 824 824 823 823 822 822 821 820 820 819 819 819 818 818 817 815 815 814 813 812 811 810 809 809 808 807 806 806 804 804
898 896 888 884 883 875 876 889 891 883 884 885 884 889 890 893 902 901 906 920 920 910 907 910 890 841 811 814 814 811 813 815 818 819 816 818 819 818 820 819 819 820 820 820 820 820 820 819 819 819 819 820 821 820 821 821 821 821 820 819 819 818 818 817 817 816 816 816 816 815 814 813 812 812 811 810 808 807 806 806 805 805 803 802 801 800
900 901 899 888 878 878 887 897 898 892 891 890 887 892 896 896 895 892 894 907 918 919 916 924 908 846 808 814 815 811 815 816 818 820 816 815 814 814 816 815 816 816 815 816 816 815 815 814 815 815 815 816 817 817 817 817 817 817 816 816 816 815 815 814 814 814 813 813 812 812 811 810 810 809 808 807 805 804 804 803 802 802 801 799 798 797
901 900 896 882 876 889 900 901 900 898 895 890 889 895 898 895 892 893 899 904 909 912 913 924 908 843 803 816 820 816 822 822 820 821 816 813 812 812 813 812 812 812 811 812 812 811 811 811 812 812 812 813 813 813 814 813 813 814 813 813 812 812 812 811 811 811 810 810 809 809 809 808 807 806 805 804 803 802 801 800 799 799 798 796 795 794
893 893 890 877 868 874 881 884 888 892 893 888 887 894 895 897 903 904 911 916 908 900 901 907 889 835 803 814 820 818 821 818 816 818 816 813 810 809 809 808 808 808 807 808 808 808 808 808 808 808 808 808 809 809 809 809 809 810 809 809 809 809 809 808 808 808 807 807 806 805 805 804 804 804 802 801 801 800 799 798 796 796 795 794 792 791
893 894 890 877 869 868 864 862 863 871 882 883 885 894 894 896 899 895 904 913 901 897 904 894 863 822 801 807 811 811 813 810 808 811 812 811 807 804 805 803 803 804 803 803 804 804 804 804 804 804 803 804 804 804 805 805 805 806 806 806 806 806 805 805 805 805 804 804 803 802 802 801 801 800 800 799 798 797 796 795 794 793 792 791 789 788
901 901 895 882 873 868 861 857 859 867 873 873 877 886 890 894 896 893 899 901 892 898 899 874 850 832 815 810 808 804 804 802 800 801 802 802 800 799 799 798 798 799 798 798 800 799 800 800 799 799 799 799 800 800 801 801 801 802 802 802 803 802 802 802 802 802 801 801 800 799 799 798 798 797 797 796 795 795 794 792 791 790 789 788 786 785
901 895 895 894 882 872 868 865 869 876 875 870 871 875 880 890 898 895 889 881 881 890 872 841 844 848 827 811 807 801 798 797 796 796 795 794 793 793 793 794 794 794 794 795 796 795 795 795 794 794 794 794 795 796 797 797 797 797 798 798 799 799 799 799 799 798 798 798 797 796 795 795 795 794 794 794 793 792 791 790 788 787 785 785 783 781
900 892 896 900 888 880 882 877 875 880 879 875 875 875 877 887 893 887 876 873 878 875 847 825 835 841 823 810 806 800 797 796 794 793 793 791 790 790 790 790 790 789 790 790 790 790 790 789 789 789 789 789 791 792 792 793 793 793 794 794 795 795 795 795 795 795 795 795 794 793 792 792 792 791 791 791 790 789 788 787 785 784 782 781 780 778
901 893 898 902 890 880 879 876 877 883 881 874 872 871 872 877 884 882 872 870 875 867 847 839 843 840 824 812 806 799 796 796 794 793 793 789 787 786 786 786 785 783 784 783 783 784 783 783 783 783 784 784 785 786 787 788 788 788 789 790 790 791 791 791 791 791 791 791 790 790 789 789 789 788 788 787 787 786 785 783 782 781 779 777 776 775
899 892 897 901 887 870 867 870 875 879 878 871 864 864 868 870 875 882 877 874 877 869 856 854 857 847 824 808 806 802 796 796 793 790 788 784 781 782 782 780 779 777 776 776 776 777 777 778 778 778 778 779 779 781 782 782 783 784 784 785 786 786 787 787 787 787 787 787 787 786 786 785 785 785 784 784 784 783 782 780 779 777 775 774 772 771
900 896 897 898 881 860 862 871 873 874 874 870 858 850 856 861 862 866 870 869 866 858 852 857 855 832 805 796 800 798 793 792 787 781 780 777 774 777 776 773 772 770 769 769 769 770 771 771 772 772 772 772 773 775 776 777 778 779 779 781 781 782 783 783 783 783 782 783 783 783 783 782 782 782 781 781 780 779 779 777 775 774 772 770 769 768
903 894 892 898 879 856 864 877 875 868 853 838 832 827 830 842 846 849 853 853 851 846 841 838 825 803 791 791 793 789 786 785 779 774 773 770 767 769 769 766 764 762 762 762 762 763 764 764 765 765 765 766 768 769 770 772 773 774 775 776 777 778 778 778 779 778 778 779 779 779 779 779 778 778 777 777 777 776 775 774 772 771 769 767 766 765
906 896 895 901 881 860 870 876 864 852 829 812 818 823 822 830 834 834 833 833 838 840 830 818 807 798 796 794 789 784 779 776 773 770 768 767 766 764 761 759 757 756 755 756 756 757 757 757 758 759 760 761 762 764 766 767 768 769 771 772 773 773 774 774 775 775 775 775 775 775 775 775 775 774 774 774 773 772 772 770 769 767 766 764 763 761
904 900 900 905 894 878 879 872 845 826 819 818 827 833 832 832 834 834 828 823 827 832 827 820 813 803 797 792 787 782 774 771 772 770 766 765 763 761 758 753 751 751 750 750 751 750 751 752 753 754 755 756 758 760 761 762 764 765 766 767 769 769 770 770 771 771 771 771 771 771 771 771 771 770 770 770 769 769 768 767 766 764 763 761 760 758
898 900 898 902 900 884 876 871 848 826 822 823 827 837 840 836 837 838 829 816 813 818 821 819 810 800 794 790 784 778 774 775 775 769 763 760 757 756 753 747 744 744 743 743 743 743 744 746 747 748 750 752 754 756 757 758 760 761 762 763 765 765 766 766 767 767 767 767 767 767 768 768 767 767 766 766 765 765 764 763 762 761 760 758 757 755
895 898 896 896 895 887 882 879 863 844 829 814 815 832 840 835 834 835 829 816 806 808 813 810 802 795 791 786 780 778 778 778 770 757 752 750 747 745 744 740 737 737 737 737 737 738 739 740 741 743 745 748 751 752 753 755 756 758 759 760 761 762 762 762 762 763 763 763 763 764 764 764 764 763 763 762 762 761 760 760 759 758 757 756 754 752
897 896 894 890 890 895 893 883 868 851 827 810 821 841 847 843 841 840 838 825 805 799 803 802 797 792 786 782 779 778 781 777 761 743 738 740 739 738 738 736 734 733 732 733 733 734 735 736 738 740 742 745 748 749 751 753 754 755 755 756 757 758 758 758 758 759 759 760 760 760 761 761 760 760 759 759 758 758 757 757 756 755 754 753 751 750
901 901 901 897 894 897 891 880 872 854 826 820 838 848 848 849 847 843 839 821 799 794 799 799 797 792 787 783 779 779 785 780 759 738 733 736 738 738 737 734 732 731 730 729 730 730 731 733 735 737 740 743 744 746 749 750 751 752 752 753 754 754 754 754 754 755 756 756 757 757 757 757 757 756 756 755 755 755 754 753 753 752 751 750 749 748
904 904 904 900 897 899 894 884 877 858 834 833 845 846 849 854 848 840 829 805 787 790 796 797 796 791 786 783 780 780 784 779 761 743 735 737 739 739 737 734 731 730 729 727 728 728 728 731 733 735 737 738 739 743 746 748 749 750 749 750 751 751 750 750 751 752 753 753 754 754 754 754 754 753 753 752 752 751 751 750 750 749 749 748 747 745
908 908 908 905 900 902 900 890 878 858 839 839 847 848 852 852 842 834 821 800 788 789 791 794 794 789 784 782 780 778 773 768 760 748 740 739 738 735 734 732 729 728 727 725 725 726 727 728 728 729 731 732 736 740 742 744 746 747 747 749 749 747 746 747 748 750 750 750 751 751 751 751 751 750 750 749 749 748 748 747 747 747 746 745 744 743
892 900 905 905 899 899 903 898 879 855 840 843 850 852 853 845 831 820 808 798 797 795 792 793 792 787 784 780 776 773 765 758 754 748 742 739 735 731 729 728 727 726 724 724 724 724 724 724 725 726 727 729 733 736 738 741 743 743 745 746 744 743 744 746 747 747 747 747 747 747 748 748 748 747 747 746 746 745 745 745 745 744 744 743 742 741
870 873 876 885 887 889 897 892 865 840 836 845 847 846 845 835 819 809 802 799 800 799 796 792 788 786 784 777 771 767 761 755 750 746 741 737 733 729 726 724 724 723 721 721 721 720 720 721 721 721 723 726 729 731 734 737 738 740 743 742 740 741 744 745 745 744 745 744 744 744 745 745 745 744 743 743 743 742 742 742 742 742 742 741 740 739
865 858 855 867 873 871 872 864 841 826 832 843 841 834 830 824 814 811 809 804 800 799 797 791 785 784 783 778 771 765 760 755 749 743 740 735 730 727 723 720 721 720 718 717 717 716 718 718 717 718 721 723 726 727 729 732 734 736 738 736 737 740 742 742 742 742 742 742 742 742 742 742 742 741 740 740 740 740 739 739 739 739 739 739 738 737
860 859 856 861 863 858 854 847 837 831 831 836 836 829 822 817 815 815 814 809 803 800 798 794 787 783 781 778 771 764 760 756 749 743 740 735 730 726 722 719 718 717 715 714 714 714 715 714 714 717 719 720 722 722 724 726 729 731 731 731 734 738 739 739 740 740 740 740 739 739 739 739 739 738 738 738 737 737 737 736 736 737 737 736 736 735
863 866 864 860 857 856 850 841 839 836 830 828 829 825 821 818 816 815 812 808 804 800 798 796 790 784 781 777 772 766 760 756 750 744 739 736 731 726 723 719 716 714 713 712 711 711 712 713 714 716 716 716 718 718 719 721 723 724 725 728 732 734 735 737 738 737 738 737 737 737 737 737 737 736 736 735 735 735 734 734 734 734 734 734 734 732
865 866 863 857 855 856 849 837 836 836 829 824 822 818 817 817 815 814 812 807 802 799 797 795 791 785 781 777 773 767 761 756 752 745 739 736 731 726 722 719 715 712 710 708 707 708 709 711 712 712 712 713 713 713 715 716 717 719 721 726 729 730 731 733 734 734 735 735 735 735 735 734 734 734 733 733 732 732 732 732 732 732 732 732 731 730
863 863 860 856 855 855 846 836 835 835 830 826 822 817 815 813 811 811 810 806 803 799 794 792 790 786 782 777 772 767 760 755 752 746 740 736 731 726 722 718 713 710 707 705 704 704 705 706 706 706 707 707 707 709 711 712 713 716 719 722 724 726 728 729 730 731 732 733 733 733 733 732 732 731 731 731 730 729 729 729 729 730 730 730 729 728
864 862 859 857 857 854 846 837 834 831 825 821 821 819 817 814 811 809 806 803 801 797 791 787 784 781 779 776 772 767 760 754 750 746 741 736 731 726 722 717 712 709 705 703 701 701 700 700 700 700 701 701 702 704 706 708 710 713 716 718 720 722 724 725 726 728 729 730 731 731 730 730 730 729 729 728 727 727 727 727 727 727 727 727 727 727
865 860 858 861 861 856 846 838 835 833 826 818 817 818 815 812 811 808 803 800 797 793 789 783 777 773 772 770 769 767 761 753 748 744 739 734 730 726 721 717 712 707 703 701 699 698 697 696 695 696 697 697 698 700 702 704 706 709 712 714 716 718 720 721 723 725 726 727 728 728 728 728 727 727 727 726 725 725 724 724 725 725 725 726 725 725
862 858 857 861 860 852 842 837 838 838 831 821 818 816 813 810 809 806 801 798 794 790 787 783 778 773 768 765 764 763 759 753 747 743 738 733 728 724 720 715 712 707 703 700 697 695 694 693 693 694 693 693 695 696 697 700 702 705 708 710 712 714 716 718 720 721 722 724 725 725 726 726 725 725 725 724 724 723 722 722 722 722 722 723 723 723